Location: Earls Croome
(52.0667°N, 2.2000°W)
Time: 01:03:22
(UTC+00:00)

Cosmos 2084 Rocket - Pass Details

Date: 17 November 2019
Orbit: 573 x 609 km, 62.8° (Epoch: 07 December)

Event Time Altitude Azimuth Distance (km) Brightness Sun altitude
Exits shadow 05:34:10 32° 310° (NW) 1,053 4.3 -17.8°
Maximum altitude 05:34:58 35° 333° (NNW) 1,000 4.3 -17.6°
Drops below altitude 10° 05:39:04 10° 39° (NE) 1,972 6.5 -17.0°
Sets 05:41:31 0° 49° (NE) 2,878 7.6 -16.6°
